SCP
0 -0 0 -0 -0 0 -0 0 -0 -0 -0 -0 -0 -0 -0 -0 -0 -0 -0 -0 -0 -0 -0 -0 0 0 0 0 0 0 0 0 -0 -0 -0 -0 0 -0 0 0 0 0 0
-0 -0 0 0 -0 0 -0 -0 0 -0 -0 -0 -0 -0 -0 -0 -0 -0 -0 -0 -0 -0 0 0 0 0 0 0 0 0 0 0 0 -0 0 0 0 0 -0 -0 -0 0 0
-0 -0 -0 0 -0 0 -0 -0 -0 -0 -0 -0 -0 -0 -0 -0 -0 -0 -0 -0 -0 -0 -0 0 0 0 0 0 0 0 0 0 0 0 0 -0 0 0 0 0 -0 0 0
-0 -0 -0 0 0 0 -0 -0 -0 -0 -0 -0 -0 -0 -0 -0 -0 -0 -0 -0 -0 -0 -0 0 0 0 0 0 0 0 0 0 0 0 0 0 0 0 0 0 0 0 0
-0 -0 -0 -0 -0 -0 -0 -0 -0 -0 -0 -0 -0 -0 -0 -0 -0 -0 -0 -0 -0 -0 -0 -0 0 0 0 0 0 0 -0 -0 0 0 -0 0 0 0 0 0 0 0 0
-0 -0 -0 -0 -0 -0 -0 -0 -0 -0 -0 -0 -0 -0 -0 -0 -0 -0 -0 -0 -0 -0 -0 -0 0 0 0 0 0 0 -0 -0 0 0 0 0 -0 0 0 0 0 0 0
0 -0 -0 -0 -0 -0 -0 -0 -0 -0 -0 -0 -0 -0 -0 -0 -0 -0 -0 -0 -0 -0 -0 0 0 0 -0 -0 0 0 -0 -0 0 -0 0 0 0 0 0 0 0 0 0
0 0 -0 -0 -0 -0 -0 -0 -0 -0 -0 -0 -0 -0 -0 -0 -0 -0 -0 -0 0 0 0 0 0 0 -0 0 -0 0 -0 -0 0 -0 0 0 0 0 0 0 0 0 0
0 -0 -0 -0 -0 0 0 0 0 -0 -0 -0 -0 -0 -0 -0 0 0 0 0 0 0 0 0 0 0 0 0 -0 0 0 -0 -0 0 0 0 0 0 0 0 0 0 0
-0 0 0 -0 -0 0 0 0 0 0 -0 -0 -0 -0 0 0 0 0 0 0 0 0 0 0 0 0 0 0 0 0 0 0 0 0 0 0 0 0 0 0 0 0 0
0 0 0 0 0 0 0 0 0 0 0 0 0 0 0 0 0 0 0 0 0 0 0 0 0 0 0 0 0 0 0 0 0 0 0 0 0 0 0 0 0 0 1
0 0 0 0 0 0 0 0 0 0 0 0 0 0 0 0 0 0 0 0 0 0 0 0 0 0 0 0 0 0 0 0 0 0 0 0 0 0 0 0 0 0 1
0 0 0 0 0 0 0 0 0 0 0 0 0 0 0 0 0 0 0 0 0 0 0 0 0 0 0 0 0 0 0 0 0 0 0 0 0 0 0 0 0 0 0
0 0 0 0 0 0 0 0 0 0 0 0 0 0 0 0 0 0 0 0 0 0 0 0 0 0 0 0 0 0 0 0 0 0 0 0 0 0 0 0 0 0 0
0 0 0 0 0 1 1 0 0 0 0 0 0 0 0 0 0 0 0 0 0 0 0 0 0 0 0 0 0 0 0 0 0 0 0 1 0 0 0 0 0 0 1
0 1 0 0 0 1 1 1 0 0 0 0 0 0 0 0 0 0 0 0 0 0 0 0 0 0 0 0 0 0 0 0 0 0 0 0 1 0 0 0 0 0 0
1 1 0 0 0 0 0 1 0 0 0 0 0 0 0 0 0 0 0 0 0 0 0 0 0 0 0 1 1 1 1 1 1 1 1 1 1 0 0 0 0 0 0
1 0 0 0 0 0 0 0 0 0 -0 0 1 1 0 0 0 1 0 0 0 0 0 0 0 1 1 1 1 1 1 1 1 1 1 0 0 1 0 0 0 0 0
1 1 0 0 0 -0 -0 -0 -0 -0 -0 -0 0 1 0 0 0 1 0 0 0 0 0 0 0 1 1 2 2 1 1 1 1 1 1 1 1 1 0 0 0 0 0
0 1 1 0 0 0 -0 -0 -0 0 0 1 1 1 0 0 0 1 0 0 0 0 0 0 0 1 2 2 2 2 2 1 4 3 1 1 1 1 0 0 0 0 0
0 0 1 1 1 1 1 1 1 1 1 1 1 0 0 0 1 0 0 0 0 0 0 0 1 1 2 3 2 2 1 1 3 1 0 1 1 1 0 0 0 0 0
0 0 -0 0 1 2 2 2 2 2 1 1 1 0 0 1 1 1 1 1 1 1 1 2 2 2 2 2 1 1 1 0 1 0 0 0 1 0 0 0 0 0 0
0 0 -0 0 1 1 2 3 3 2 2 2 2 1 1 1 2 1 1 2 1 1 3 3 3 2 1 2 2 2 0 1 0 0 0 0 0 0 0 0 0 0 0
0 0 1 1 1 1 1 2 2 2 2 2 2 2 4 3 3 4 3 2 2 2 3 3 4 2 3 4 4 3 0 0 0 0 0 0 0 0 0 0 0 0 0
0 0 0 1 1 1 1 1 1 0 1 1 2 4 5 4 5 3 3 3 2 2 3 3 4 6 5 6 4 4 2 0 0 0 0 0 0 0 0 0 0 0 0
0 0 -0 -0 0 0 1 0 1 1 2 2 2 2 2 3 3 2 2 2 3 4 4 4 5 7 6 5 7 6 2 2 0 0 0 0 0 0 0 0 0 0 0
Wind_Speed_500mb
42 50 49 46 43 41 43 49 49 44 39 33 31 29 31 34 32 30 30 29 27 25 25 27 29 32 32 31 33 32 32 30 30 30 28 27 27 29 28 26 30 11 18
51 54 50 47 45 44 44 51 50 44 38 33 30 29 32 33 31 28 26 26 25 25 26 28 30 32 29 27 29 29 29 28 29 29 31 32 26 26 26 26 24 15 19
52 56 51 46 46 45 48 51 49 43 38 32 29 29 32 32 29 27 24 23 24 25 26 28 29 28 22 21 22 23 23 23 24 26 30 16 13 25 25 24 23 18 18
53 58 52 47 46 45 45 46 45 43 38 32 27 30 34 31 29 25 22 21 22 23 25 26 25 23 20 19 19 20 20 20 19 19 22 11 12 23 23 24 22 20 17
52 55 51 47 44 43 41 42 42 40 36 32 28 32 35 32 28 23 20 20 20 20 23 24 23 22 19 16 16 15 16 16 15 16 6 6 10 13 18 19 19 18 18
53 51 53 47 44 41 38 37 39 39 36 31 32 35 36 32 25 21 19 18 17 17 19 20 20 20 17 13 12 9 8 10 13 5 2 3 7 8 13 15 15 14 13
52 51 53 47 41 37 34 32 32 34 34 33 34 35 35 30 24 20 17 16 15 15 18 19 18 17 16 13 11 8 6 5 11 5 4 5 4 3 7 11 12 12 11
53 53 57 51 44 39 33 29 27 30 31 32 33 35 33 28 23 20 15 14 14 14 15 16 17 16 15 15 16 14 9 5 4 10 8 7 12 6 4 4 6 8 9
49 52 60 54 48 41 36 32 27 25 27 29 31 32 31 27 23 19 16 15 16 15 15 15 15 16 17 17 19 20 18 15 11 14 13 13 22 11 6 6 6 5 6
50 48 52 55 50 45 40 34 29 26 24 25 27 28 27 27 23 20 17 17 17 17 16 15 15 16 17 18 19 20 21 20 17 17 16 18 21 15 12 13 12 11 10
50 49 49 49 47 42 41 40 32 26 23 23 26 28 28 25 25 22 21 18 17 18 18 17 17 17 17 17 19 21 22 16 20 17 15 27 18 17 15 15 15 16 17
57 54 51 50 48 45 41 42 39 34 31 29 28 29 29 24 24 22 23 21 18 18 17 18 18 19 18 13 18 22 19 20 20 19 16 24 19 19 21 21 23 21 22
53 52 51 50 52 47 41 44 36 34 33 34 32 30 28 26 28 30 23 24 24 21 15 18 19 16 16 18 17 18 21 22 21 22 22 29 26 26 26 21 17 19 18
52 51 50 50 54 48 40 40 36 35 34 32 36 34 31 29 31 27 24 23 28 23 22 24 16 18 20 23 24 24 21 20 21 22 25 33 32 28 23 23 22 24 24
51 50 48 47 53 54 49 39 37 37 36 32 35 32 30 28 29 29 30 31 26 23 25 19 18 19 18 20 20 20 22 24 25 23 21 33 28 29 27 26 25 28 30
47 50 48 47 49 53 52 47 42 41 36 36 34 35 31 31 32 29 30 30 27 27 22 21 19 19 18 19 22 23 23 24 28 28 24 25 36 31 28 25 27 29 31
44 48 48 48 50 53 52 49 42 39 37 35 33 38 37 34 32 31 27 29 27 26 31 29 28 25 22 20 25 27 26 27 27 32 32 29 30 35 33 30 27 27 27
37 41 47 44 46 51 49 44 39 36 39 37 37 34 41 40 37 33 26 25 26 31 29 24 23 21 21 20 27 29 31 30 30 31 32 34 33 32 33 34 29 28 25
29 35 40 43 41 46 46 36 40 40 43 44 39 42 45 36 33 30 30 26 32 34 31 30 30 27 25 27 20 22 28 32 33 37 45 42 34 39 29 35 33 31 26
32 33 32 39 42 39 37 40 34 35 46 41 30 39 39 40 31 27 35 33 35 37 37 34 33 27 29 28 27 30 34 33 33 33 51 45 39 40 44 38 32 26 28
26 38 43 36 38 44 39 34 35 36 45 41 45 44 43 40 29 30 38 35 36 36 36 34 33 34 34 44 35 32 32 38 38 41 45 43 41 36 36 40 40 24 26
27 28 40 44 42 43 35 36 28 28 27 30 31 41 39 30 26 27 30 33 33 34 43 43 40 40 39 43 32 18 21 29 31 35 48 54 38 34 38 42 41 38 31
29 28 26 30 41 48 47 34 29 23 23 24 26 26 28 27 23 24 27 29 31 40 43 40 40 42 35 34 33 26 13 16 33 29 31 24 27 42 48 40 47 40 37
30 27 30 29 30 32 39 36 33 30 32 31 27 24 23 26 25 25 27 24 25 30 37 38 37 40 44 39 43 41 40 34 28 36 49 57 57 46 47 44 41 46 44
28 23 24 25 27 30 31 39 33 28 26 22 16 17 19 12 13 17 25 29 33 34 39 45 47 51 55 54 48 46 46 53 46 52 59 56 55 78 57 53 50 44 48
39 23 16 17 18 20 24 24 26 24 20 16 12 9 6 6 19 26 29 33 38 44 48 52 50 53 56 54 56 57 60 54 62 62 70 57 60 55 52 53 52 58 59
Wind_Direction_500mb
163 166 161 158 154 156 163 165 165 162 155 145 135 131 137 142 141 138 136 139 137 133 130 123 119 114 107 99 94 91 89 91 92 92 91 85 81 80 77 74 75 53 69
159 164 161 158 154 156 161 168 169 166 159 153 143 141 146 147 145 144 144 145 141 134 130 126 125 122 114 106 101 95 91 90 88 87 90 75 74 78 80 78 76 68 64
158 162 159 159 154 158 162 166 168 168 165 160 153 151 152 152 148 147 150 150 143 137 134 133 132 131 126 115 108 98 97 91 86 86 83 92 70 74 77 78 77 68 61
155 159 160 159 155 157 162 168 171 172 172 168 164 159 158 158 152 149 150 151 148 145 141 138 139 140 138 124 117 104 96 94 90 91 62 94 90 72 74 75 74 69 61
153 158 162 159 155 155 161 170 175 178 179 176 172 166 164 163 155 154 153 152 154 155 154 149 149 153 145 132 127 113 99 94 87 69 115 96 108 63 70 71 74 65 56
156 160 162 161 156 154 158 164 173 180 183 182 176 172 170 168 162 159 158 155 157 163 166 161 158 159 161 157 146 124 104 96 74 20 163 159 118 84 72 67 62 61 55
158 162 164 163 159 156 155 157 165 172 178 178 176 175 175 172 168 169 167 160 163 172 175 176 178 177 186 192 191 181 134 114 76 313 301 219 239 28 52 56 48 42 36
160 161 167 166 164 160 157 154 159 168 171 174 177 179 179 179 178 177 175 173 173 181 185 185 191 200 210 214 223 224 229 237 325 283 295 286 261 290 337 12 23 21 22
164 162 170 170 170 166 164 161 159 165 172 175 180 184 185 188 186 184 184 185 187 190 191 192 197 209 218 225 233 241 248 258 274 277 273 289 271 271 279 285 290 303 337
166 169 168 176 174 173 172 171 167 165 170 181 185 190 193 195 192 195 197 196 197 199 202 200 202 212 224 234 243 250 257 266 276 267 279 265 271 260 274 282 284 271 264
171 173 172 172 174 173 178 177 177 176 177 184 192 198 202 204 203 206 211 207 207 210 211 215 219 225 232 245 257 261 263 265 259 270 270 269 257 255 271 285 286 280 261
176 177 177 175 176 177 180 187 186 190 194 195 199 206 206 200 207 206 222 221 221 221 220 226 233 240 245 257 282 276 277 263 267 264 266 270 256 262 277 286 286 281 267
180 178 181 180 183 181 183 189 187 192 196 201 206 210 200 212 224 223 224 228 230 233 232 251 241 250 247 248 260 261 261 270 268 264 262 266 264 266 276 281 283 289 286
184 184 185 187 188 185 189 191 195 196 199 201 209 216 219 224 227 218 223 222 231 231 233 238 248 249 259 263 263 262 263 266 267 264 267 274 269 272 269 272 280 284 283
187 188 190 191 194 197 195 195 197 200 207 206 216 223 227 226 232 235 235 238 234 236 243 245 252 258 262 269 268 267 267 266 265 266 268 276 271 273 270 270 274 277 279
189 191 191 196 199 202 205 207 207 210 211 209 217 225 229 233 238 237 241 238 236 242 243 247 254 253 263 266 276 278 275 276 270 265 267 273 282 273 266 263 272 276 277
198 200 195 199 204 207 210 215 216 214 208 210 215 225 228 229 236 232 229 235 237 239 243 251 252 259 265 279 287 289 284 283 281 264 272 269 273 281 260 264 274 280 284
202 207 207 207 211 213 214 216 216 216 218 223 222 231 231 229 224 236 233 233 233 241 243 243 249 250 255 266 273 278 278 283 282 277 277 276 267 256 273 266 277 284 282
198 206 210 210 211 217 217 215 218 222 221 223 227 230 231 232 235 233 241 237 242 243 239 238 246 250 251 254 250 272 285 288 282 282 274 271 262 247 249 266 275 279 283
213 218 212 213 212 214 216 221 222 226 234 234 247 248 238 233 226 241 251 250 246 244 243 241 246 251 255 258 266 266 275 285 281 280 279 268 255 251 262 253 269 279 280
211 212 222 220 218 217 216 219 222 228 229 237 230 248 251 238 229 242 248 250 247 245 245 248 247 254 254 261 268 276 286 287 283 285 271 262 254 257 253 258 262 250 267
216 220 219 222 225 229 224 222 225 230 233 234 236 246 250 246 244 248 245 250 255 249 255 252 253 260 265 262 264 288 294 291 293 289 283 262 253 251 251 262 256 259 255
220 218 210 218 229 230 223 227 232 227 224 230 241 238 239 244 237 237 249 251 257 261 255 262 264 269 260 261 282 279 276 269 302 293 277 277 276 276 263 256 256 259 260
229 233 237 232 230 228 224 223 225 230 241 245 237 235 226 226 227 234 235 237 253 261 259 262 259 260 264 264 280 279 272 270 282 290 275 275 271 271 272 252 253 260 254
239 240 241 237 239 223 225 224 236 240 240 229 212 216 219 232 247 238 243 248 255 259 260 257 254 256 260 264 264 261 266 276 277 267 270 278 273 257 266 267 254 249 257
239 240 240 239 223 218 223 225 225 222 202 202 226 220 247 202 243 247 251 257 258 258 260 258 257 253 255 257 258 261 264 261 271 266 258 262 265 264 254 262 258 254 260
Wind_Speed_850mb
42 50 49 46 43 41 43 49 49 44 39 33 31 29 31 34 32 30 30 29 27 25 25 27 29 32 32 31 33 32 32 30 30 30 28 27 27 29 28 26 30 11 18
51 54 50 47 45 44 44 51 50 44 38 33 30 29 32 33 31 28 26 26 25 25 26 28 30 32 29 27 29 29 29 28 29 29 31 32 26 26 26 26 24 15 19
52 56 51 46 46 45 48 51 49 43 38 32 29 29 32 32 29 27 24 23 24 25 26 28 29 28 22 21 22 23 23 23 24 26 30 16 13 25 25 24 23 18 18
53 58 52 47 46 45 45 46 45 43 38 32 27 30 34 31 29 25 22 21 22 23 25 26 25 23 20 19 19 20 20 20 19 19 22 11 12 23 23 24 22 20 17
52 55 51 47 44 43 41 42 42 40 36 32 28 32 35 32 28 23 20 20 20 20 23 24 23 22 19 16 16 15 16 16 15 16 6 6 10 13 18 19 19 18 18
53 51 53 47 44 41 38 37 39 39 36 31 32 35 36 32 25 21 19 18 17 17 19 20 20 20 17 13 12 9 8 10 13 5 2 3 7 8 13 15 15 14 13
52 51 53 47 41 37 34 32 32 34 34 33 34 35 35 30 24 20 17 16 15 15 18 19 18 17 16 13 11 8 6 5 11 5 4 5 4 3 7 11 12 12 11
53 53 57 51 44 39 33 29 27 30 31 32 33 35 33 28 23 20 15 14 14 14 15 16 17 16 15 15 16 14 9 5 4 10 8 7 12 6 4 4 6 8 9
49 52 60 54 48 41 36 32 27 25 27 29 31 32 31 27 23 19 16 15 16 15 15 15 15 16 17 17 19 20 18 15 11 14 13 13 22 11 6 6 6 5 6
50 48 52 55 50 45 40 34 29 26 24 25 27 28 27 27 23 20 17 17 17 17 16 15 15 16 17 18 19 20 21 20 17 17 16 18 21 15 12 13 12 11 10
50 49 49 49 47 42 41 40 32 26 23 23 26 28 28 25 25 22 21 18 17 18 18 17 17 17 17 17 19 21 22 16 20 17 15 27 18 17 15 15 15 16 17
57 54 51 50 48 45 41 42 39 34 31 29 28 29 29 24 24 22 23 21 18 18 17 18 18 19 18 13 18 22 19 20 20 19 16 24 19 19 21 21 23 21 22
53 52 51 50 52 47 41 44 36 34 33 34 32 30 28 26 28 30 23 24 24 21 15 18 19 16 16 18 17 18 21 22 21 22 22 29 26 26 26 21 17 19 18
52 51 50 50 54 48 40 40 36 35 34 32 36 34 31 29 31 27 24 23 28 23 22 24 16 18 20 23 24 24 21 20 21 22 25 33 32 28 23 23 22 24 24
51 50 48 47 53 54 49 39 37 37 36 32 35 32 30 28 29 29 30 31 26 23 25 19 18 19 18 20 20 20 22 24 25 23 21 33 28 29 27 26 25 28 30
47 50 48 47 49 53 52 47 42 41 36 36 34 35 31 31 32 29 30 30 27 27 22 21 19 19 18 19 22 23 23 24 28 28 24 25 36 31 28 25 27 29 31
44 48 48 48 50 53 52 49 42 39 37 35 33 38 37 34 32 31 27 29 27 26 31 29 28 25 22 20 25 27 26 27 27 32 32 29 30 35 33 30 27 27 27
37 41 47 44 46 51 49 44 39 36 39 37 37 34 41 40 37 33 26 25 26 31 29 24 23 21 21 20 27 29 31 30 30 31 32 34 33 32 33 34 29 28 25
29 35 40 43 41 46 46 36 40 40 43 44 39 42 45 36 33 30 30 26 32 34 31 30 30 27 25 27 20 22 28 32 33 37 45 42 34 39 29 35 33 31 26
32 33 32 39 42 39 37 40 34 35 46 41 30 39 39 40 31 27 35 33 35 37 37 34 33 27 29 28 27 30 34 33 33 33 51 45 39 40 44 38 32 26 28
26 38 43 36 38 44 39 34 35 36 45 41 45 44 43 40 29 30 38 35 36 36 36 34 33 34 34 44 35 32 32 38 38 41 45 43 41 36 36 40 40 24 26
27 28 40 44 42 43 35 36 28 28 27 30 31 41 39 30 26 27 30 33 33 34 43 43 40 40 39 43 32 18 21 29 31 35 48 54 38 34 38 42 41 38 31
29 28 26 30 41 48 47 34 29 23 23 24 26 26 28 27 23 24 27 29 31 40 43 40 40 42 35 34 33 26 13 16 33 29 31 24 27 42 48 40 47 40 37
30 27 30 29 30 32 39 36 33 30 32 31 27 24 23 26 25 25 27 24 25 30 37 38 37 40 44 39 43 41 40 34 28 36 49 57 57 46 47 44 41 46 44
28 23 24 25 27 30 31 39 33 28 26 22 16 17 19 12 13 17 25 29 33 34 39 45 47 51 55 54 48 46 46 53 46 52 59 56 55 78 57 53 50 44 48
39 23 16 17 18 20 24 24 26 24 20 16 12 9 6 6 19 26 29 33 38 44 48 52 50 53 56 54 56 57 60 54 62 62 70 57 60 55 52 53 52 58 59
Wind_Direction_850mb
163 166 161 158 154 156 163 165 165 162 155 145 135 131 137 142 141 138 136 139 137 133 130 123 119 114 107 99 94 91 89 91 92 92 91 85 81 80 77 74 75 53 69
159 164 161 158 154 156 161 168 169 166 159 153 143 141 146 147 145 144 144 145 141 134 130 126 125 122 114 106 101 95 91 90 88 87 90 75 74 78 80 78 76 68 64
158 162 159 159 154 158 162 166 168 168 165 160 153 151 152 152 148 147 150 150 143 137 134 133 132 131 126 115 108 98 97 91 86 86 83 92 70 74 77 78 77 68 61
155 159 160 159 155 157 162 168 171 172 172 168 164 159 158 158 152 149 150 151 148 145 141 138 139 140 138 124 117 104 96 94 90 91 62 94 90 72 74 75 74 69 61
153 158 162 159 155 155 161 170 175 178 179 176 172 166 164 163 155 154 153 152 154 155 154 149 149 153 145 132 127 113 99 94 87 69 115 96 108 63 70 71 74 65 56
156 160 162 161 156 154 158 164 173 180 183 182 176 172 170 168 162 159 158 155 157 163 166 161 158 159 161 157 146 124 104 96 74 20 163 159 118 84 72 67 62 61 55
158 162 164 163 159 156 155 157 165 172 178 178 176 175 175 172 168 169 167 160 163 172 175 176 178 177 186 192 191 181 134 114 76 313 301 219 239 28 52 56 48 42 36
160 161 167 166 164 160 157 154 159 168 171 174 177 179 179 179 178 177 175 173 173 181 185 185 191 200 210 214 223 224 229 237 325 283 295 286 261 290 337 12 23 21 22
164 162 170 170 170 166 164 161 159 165 172 175 180 184 185 188 186 184 184 185 187 190 191 192 197 209 218 225 233 241 248 258 274 277 273 289 271 271 279 285 290 303 337
166 169 168 176 174 173 172 171 167 165 170 181 185 190 193 195 192 195 197 196 197 199 202 200 202 212 224 234 243 250 257 266 276 267 279 265 271 260 274 282 284 271 264
171 173 172 172 174 173 178 177 177 176 177 184 192 198 202 204 203 206 211 207 207 210 211 215 219 225 232 245 257 261 263 265 259 270 270 269 257 255 271 285 286 280 261
176 177 177 175 176 177 180 187 186 190 194 195 199 206 206 200 207 206 222 221 221 221 220 226 233 240 245 257 282 276 277 263 267 264 266 270 256 262 277 286 286 281 267
180 178 181 180 183 181 183 189 187 192 196 201 206 210 200 212 224 223 224 228 230 233 232 251 241 250 247 248 260 261 261 270 268 264 262 266 264 266 276 281 283 289 286
184 184 185 187 188 185 189 191 195 196 199 201 209 216 219 224 227 218 223 222 231 231 233 238 248 249 259 263 263 262 263 266 267 264 267 274 269 272 269 272 280 284 283
187 188 190 191 194 197 195 195 197 200 207 206 216 223 227 226 232 235 235 238 234 236 243 245 252 258 262 269 268 267 267 266 265 266 268 276 271 273 270 270 274 277 279
189 191 191 196 199 202 205 207 207 210 211 209 217 225 229 233 238 237 241 238 236 242 243 247 254 253 263 266 276 278 275 276 270 265 267 273 282 273 266 263 272 276 277
198 200 195 199 204 207 210 215 216 214 208 210 215 225 228 229 236 232 229 235 237 239 243 251 252 259 265 279 287 289 284 283 281 264 272 269 273 281 260 264 274 280 284
202 207 207 207 211 213 214 216 216 216 218 223 222 231 231 229 224 236 233 233 233 241 243 243 249 250 255 266 273 278 278 283 282 277 277 276 267 256 273 266 277 284 282
198 206 210 210 211 217 217 215 218 222 221 223 227 230 231 232 235 233 241 237 242 243 239 238 246 250 251 254 250 272 285 288 282 282 274 271 262 247 249 266 275 279 283
213 218 212 213 212 214 216 221 222 226 234 234 247 248 238 233 226 241 251 250 246 244 243 241 246 251 255 258 266 266 275 285 281 280 279 268 255 251 262 253 269 279 280
211 212 222 220 218 217 216 219 222 228 229 237 230 248 251 238 229 242 248 250 247 245 245 248 247 254 254 261 268 276 286 287 283 285 271 262 254 257 253 258 262 250 267
216 220 219 222 225 229 224 222 225 230 233 234 236 246 250 246 244 248 245 250 255 249 255 252 253 260 265 262 264 288 294 291 293 289 283 262 253 251 251 262 256 259 255
220 218 210 218 229 230 223 227 232 227 224 230 241 238 239 244 237 237 249 251 257 261 255 262 264 269 260 261 282 279 276 269 302 293 277 277 276 276 263 256 256 259 260
229 233 237 232 230 228 224 223 225 230 241 245 237 235 226 226 227 234 235 237 253 261 259 262 259 260 264 264 280 279 272 270 282 290 275 275 271 271 272 252 253 260 254
239 240 241 237 239 223 225 224 236 240 240 229 212 216 219 232 247 238 243 248 255 259 260 257 254 256 260 264 264 261 266 276 277 267 270 278 273 257 266 267 254 249 257
239 240 240 239 223 218 223 225 225 222 202 202 226 220 247 202 243 247 251 257 258 258 260 258 257 253 255 257 258 261 264 261 271 266 258 262 265 264 254 262 258 254 260